FENGYUN 1C DEB, 31755

Orbit data source: Space-Track

FENGYUN 1C DEB, 31755 is space debris in SSO originally from a launch on Mon, 10 May 1999 UTC launched from the Taiyaun Space Center, China (TSC). Fengyun 1C debris stems from the Chinese weather satellite Fengyun-1C, which was intentionally destroyed by a Chinese anti-satellite missile in 2007. This event dramatically increased the amount of space debris, with thousands of trackable fragments posing hazards to satellites and human spaceflight. The Fengyun 1C debris cloud has become a focal point in discussions about space sustainability and the need for international regulations to prevent the creation of new debris.

Loading next visibility...
Identifier
31755, 1999-025CFE
Orbit
SSO
Country
Flag of CNCN / PRC
Related business
Manufacturer
Unknown
Mission
Spacecraft
Bus & Motor
Unknown
Mass
Unknown
Launch date (UTC)
1999-05-10 (27 years ago)
Launch vehicle
Unknown
Launch site
Taiyaun Space Center, China (TSC)
Object type
Payload
Rocket body
Debris
Shape & HBR
Unknown shape, 0.1 m
Radar Cross Section
Small (<0.1 m²)

Expand to show TLE details & history
Last TLE update: 3 days ago

TLE from 3 days ago
0 FENGYUN 1C DEB
1 31755U 99025CFE 26175.20374021  .00000524  00000-0  28056-3 0  9991
2 31755  98.7947 167.3883 0187994 195.5580 225.4346 14.08565509663952
Epoch: 2026-06-24T04:53Z
TLE epoch observation values (Epoch: 2026-06-24T04:53:23.154Z)
Latitude
58.45498°
Longitude
167.1575°
Altitude
970.952 km
Speed
7.322 km/s
True Right ascension
10h 11m 28s
True Declination
58° 18' 21"
Sunlit
Object was in daylight at epoch
Visualization orbit readout
Latitude
Unknown
Longitude
Unknown
Altitude
Unknown
Speed
Unknown
Apparent Right ascension
Unknown
Apparent Declination
Unknown
Sunlit
N/A
Visualization observer readout
Local Sidereal Time
15:29:04
Azimuth
Unknown
Elevation
Unknown
Doppler factor
Unknown
Orbital elements
Apogee altitude
997.561 km
Perigee altitude
725.361 km
Semi-major axis
7,239.598 km
Eccentricity
0.0188
Inclination
98.7947°
RAAN
167.3883°
Arg. of periapsis
195.558°
True anomaly
223.92489°
Mean anomaly
225.4346°
Eccentric anomaly
224.67726°
Mean motion
3.52348 °/min
Orbital period
102.17 mins
BSTAR
0.00028056
Loading maneuver chart data...
Computing Atmospheric mass density...

Documentation

Showing up to 5 results
|